Location: SBMNH
(34.4407°N, 119.7157°W)
Time: 21:39:52
(UTC-07:00)

X-37B - Pass Details

Date: 18 August 2022
Orbit: 329 x 342 km, 45.0° (Epoch: 29 September)

Event Time Altitude Azimuth Distance (km) Brightness Sun altitude
Rises 20:47:20 0° 210° (SSW) 2,072 4.3 -13.3°
Reaches altitude 10° 20:49:32 10° 195° (SSW) 1,243 3.0 -13.7°
Enters shadow 20:50:48 18° 172° (S) 881 2.1 -13.9°
